Regional Weather Roundup
Issued by NWS

Home | Current Version | Previous Version | Text Only | Print | Product List | Glossary On
Versions: 1 2 3 4 5 6 7 8 9 10 11 12 13 14 15 16 17 18 19 20 21 22 23 24 25 26 27 28 29 30 31 32 33 34 35 36 37 38 39 40 41 42 43 44 45 46 47 48 49 50
000
ASUS45 KABQ 260401
RWRNM
NEW MEXICO REGIONAL WEATHER ROUNDUP
NATIONAL WEATHER SERVICE ALBUQUERQUE NM
1000 PM MDT SAT MAR 25 2017

NOTE: "FAIR" MEANS FEW OR NO CLOUDS BELOW 12,000 FEET AGL WITH NO
       SIGNIFICANT WEATHER OR OBSTRUCTIONS TO VISION.

      THIS PRODUCT IS RELEASED AS TWO VERSIONS.  ONE VERSION NEAR
      THE TOP OF THE HOUR CONTAINING PRELIMINARY DATA FROM ALBUQUERQUE
      AND OTHER STATIONS.  A FINAL VERSION WITH ADDITIONAL DATA IS
      ISSUED ABOUT 10 MINUTES AFTER THE HOUR.

NMZ501-503-504-510>518-260500-
NORTHWEST PLATEAU/NORTHCENTRAL MOUNTAINS

CITY           SKY/WX    TMP DP  RH WIND       PRES   REMARKS
FARMINGTON     LGT RAIN  41  38  89 N6        29.95F
LOS ALAMOS     CLOUDY    47  30  51 W23G38    29.93R
SANTA FE       CLOUDY    55  27  34 NW13G29   29.88R
TAOS             N/A     48  27  43 W12       29.95R
ANGEL FIRE     CLOUDY    33  27  80 S3        29.97R

$$
NMZ402-403-502-505>509-260500-
WESTCENTRAL MOUNTAINS/SOUTHWEST MOUNTAINS

CITY           SKY/WX    TMP DP  RH WIND       PRES   REMARKS
GALLUP         CLOUDY    36  34  92 CALM      30.02F
GRANTS         LGT RAIN  46  29  52 W28G35    30.05R
SILVER CITY    FAIR      53  22  29 W13       29.97R

$$
NMZ407-409-411-412-260500-
SOUTHERN DESERTS

CITY           SKY/WX    TMP DP  RH WIND       PRES   REMARKS
DEMING         FAIR      63  21  20 W13       29.92R
LAS CRUCES     FAIR      67  11  11 W15       29.90R
HOLLOMAN AFB   FAIR      63  15  15 S13       29.88S
ALAMOGORDO     FAIR      61  18  18 S13       29.86S
T OR C         FAIR      63  14  15 W9        29.89R

$$
NMZ519>523-260500-
CENTRAL VALLEYS/CENTRAL HIGHLANDS

CITY           SKY/WX    TMP DP  RH WIND       PRES   REMARKS
ALBUQUERQUE    FAIR      61  16  17 W18G28    29.89R
DOUBLE EAGLE   CLEAR     55  21  26 SW26      29.91R
MORIARTY ARPT  FAIR      52  19  26 W13G21    29.92R
CLINES CORNERS FAIR      50  16  25 SW24      29.93F
BELEN          FAIR      58  15  18 W18       29.90R
SOCORRO        FAIR      55  14  20 W7        29.88R

$$
NMZ524>526-539-540-260500-
SOUTHCENTRAL MOUNTAINS

CITY           SKY/WX    TMP DP  RH WIND       PRES   REMARKS
RUIDOSO        NOT AVBL

$$
NMZ527>531-260500-
NORTHEAST HIGHLANDS/NORTHEAST PLAINS

CITY           SKY/WX    TMP DP  RH WIND       PRES   REMARKS
LAS VEGAS      FAIR      48  18  30 S14       29.90S
RATON          FAIR      52  24  33 CALM      29.86S
CLAYTON        FAIR      48  33  56 SE13      29.86F

$$
NMZ532>537-260500-
EASTCENTRAL PLAINS

CITY           SKY/WX    TMP DP  RH WIND       PRES   REMARKS
TUCUMCARI      FAIR      60  24  25 SW12      29.80S
CANNON AFB     FAIR      51  31  45 SE10      29.87S
CLOVIS AIRPORT FAIR      54  28  37 S10       29.87F

$$
NMZ028-029-538-260500-
SOUTHEAST PLAINS

CITY           SKY/WX    TMP DP  RH WIND       PRES   REMARKS
ROSWELL        FAIR      64  24  21 S16         N/A
ARTESIA        FAIR      59  27  29 SE9       29.85S
CARLSBAD       FAIR      63  27  25 S12       29.84R
HOBBS          FAIR      54  23  30 E6        29.89F


$$



USA.gov is the U.S. government's official web portal to all federal, state and local government web resources and services.